Stations météo

réclame
Mon MeteoGroup
Kleine Brogel, Belgique (6479): Température de l'air & dewpoint: 15.06.2018 19:00:00 - 21.06.2018 19:00:00 (CEST)Kleine Brogel, Belgique (6479): Vitesse du vent & gusts: 15.06.2018 19:00:00 - 21.06.2018 19:00:00 (CEST)Kleine Brogel, Belgique (6479): Direction du vent: 15.06.2018 19:00:00 - 21.06.2018 19:00:00 (CEST)Kleine Brogel, Belgique (6479): reduced air pressure: 15.06.2018 19:00:00 - 21.06.2018 19:00:00 (CEST)Kleine Brogel, Belgique (6479): visibility: 15.06.2018 19:00:00 - 21.06.2018 19:00:00 (CEST)
Date & Time tt [°C] td [°C] ff [km/h] ff [knt] fx [km/h] fx [knt] dd ppp [hPa] vv [km]
21.06.2018 19:00:00 15,1 5,7 18 10 36 19 NW 1024,7 20
21.06.2018 18:00:00 15,8 5,2 18 10 29 16 WNW 1024,4 20
21.06.2018 17:00:00 15,6 4,3 14 8 - - NW 1024,0 20
21.06.2018 16:00:00 16,5 3,4 22 12 40 21 NW 1023,1 20
21.06.2018 15:00:00 19,1 3,2 18 10 40 21 NW 1022,3 20
21.06.2018 14:00:00 17,8 3,9 22 12 - - NW 1021,7 20
21.06.2018 13:00:00 17,5 4,3 25 14 43 23 W 1021,1 20
21.06.2018 12:00:00 18,6 5,0 22 12 36 19 WNW 1020,6 20
21.06.2018 11:00:00 15,6 6,7 25 14 - - NW 1021,2 15
21.06.2018 10:00:00 16,4 9,6 15 8 32 18 WNW 1018,9 10
21.06.2018 09:00:00 15,8 10,7 14 8 36 19 WNW 1018,2 20
21.06.2018 08:00:00 17,2 12,8 14 8 - - WNW 1017,0 15
21.06.2018 07:00:00 17,1 14,6 14 8 25 14 W 1016,7 8
21.06.2018 06:00:00 16,8 14,5 11 6 22 12 W 1016,1 10
21.06.2018 05:00:00 16,6 14,1 14 8 - - WSW 1016,2 -
21.06.2018 04:00:00 16,6 13,6 14 8 18 10 WSW 1016,7 -
21.06.2018 03:00:00 17,1 13,7 11 6 11 6 SW 1016,8 -
21.06.2018 02:00:00 17,7 14,2 4 2 - - N 1017,3 -
21.06.2018 01:00:00 18,7 14,2 11 6 14 8 WSW 1017,7 -
21.06.2018 00:00:00 19,2 14,0 7 4 11 6 SW 1017,8 -
20.06.2018 23:00:00 19,5 13,9 7 4 - - WSW 1018,3 -
20.06.2018 22:00:00 21,5 13,5 7 4 18 10 W 1018,2 -
20.06.2018 21:00:00 24,7 12,9 7 4 22 12 W 1018,0 -
20.06.2018 20:00:00 26,0 13,8 11 6 - - W 1018,2 -
20.06.2018 19:00:00 27,2 13,7 14 8 25 14 W 1018,6 -
20.06.2018 18:00:00 27,8 13,3 11 6 32 18 W 1018,8 -
20.06.2018 17:00:00 28,0 12,9 14 8 - - W 1019,5 25
20.06.2018 16:00:00 27,4 13,6 11 6 29 16 WSW 1019,8 25
20.06.2018 15:00:00 27,4 14,8 14 8 29 16 SW 1020,3 25
20.06.2018 14:00:00 26,0 15,1 11 6 - - SW 1021,0 25
20.06.2018 13:00:00 25,2 15,4 14 8 25 14 SSW 1021,7 25
20.06.2018 12:00:00 23,9 15,2 15 8 25 14 SW 1022,3 10
20.06.2018 11:00:00 20,1 14,8 14 8 - - WSW 1022,9 20
20.06.2018 10:00:00 20,1 14,6 14 8 25 14 WSW 1022,8 20
20.06.2018 09:00:00 19,1 14,5 14 8 25 14 WSW 1022,8 20
20.06.2018 08:00:00 18,1 14,4 11 6 - - SW 1022,8 20
20.06.2018 07:00:00 16,7 15,0 4 2 11 6 N 1023,0 20
20.06.2018 06:00:00 15,8 14,7 4 2 11 6 N 1023,1 15
20.06.2018 05:00:00 16,8 15,4 7 4 - - SW 1023,2 -
20.06.2018 04:00:00 17,2 15,8 4 2 7 4 N 1023,5 -
20.06.2018 03:00:00 17,6 15,8 4 2 7 4 N 1023,7 -
20.06.2018 02:00:00 18,0 15,7 4 2 - - N 1024,2 -
20.06.2018 01:00:00 18,1 15,7 4 2 7 4 N 1024,5 -
20.06.2018 00:00:00 18,7 15,8 4 2 7 4 N 1024,5 -
19.06.2018 23:00:00 19,0 15,6 4 2 - - N 1024,7 -
19.06.2018 22:00:00 19,5 15,5 4 2 11 6 N 1024,4 -
19.06.2018 21:00:00 20,0 15,4 7 4 14 8 SW 1024,2 -
19.06.2018 20:00:00 20,2 15,6 11 6 - - SW 1024,2 -
19.06.2018 19:00:00 20,9 15,2 7 4 18 10 W 1024,5 -
19.06.2018 18:00:00 21,7 15,3 7 4 18 10 W 1024,5 -
19.06.2018 17:00:00 22,0 15,2 11 6 - - WSW 1024,7 -
19.06.2018 16:00:00 21,0 15,2 11 6 18 10 WSW 1024,9 12
19.06.2018 15:00:00 20,1 15,4 13 7 18 10 WSW 1025,0 10
19.06.2018 14:00:00 - - - - - - - - -
19.06.2018 13:00:00 - - - - - - - - -
19.06.2018 12:00:00 19,0 15,7 11 6 22 12 W 1024,7 8
19.06.2018 11:00:00 - - - - - - - - -
19.06.2018 10:00:00 - - - - - - - - -
19.06.2018 09:00:00 16,6 14,2 14 8 22 12 SW 1023,8 -
19.06.2018 08:00:00 15,6 13,5 11 6 - - SW 1023,5 -
19.06.2018 07:00:00 15,1 13,0 11 6 22 12 SW 1023,2 -
19.06.2018 06:00:00 14,5 12,4 14 8 22 12 SW 1023,1 -
19.06.2018 05:00:00 13,8 11,6 14 8 - - SW 1022,7 -
19.06.2018 04:00:00 13,5 11,1 11 6 18 10 SW 1022,5 -
19.06.2018 03:00:00 14,1 11,3 11 6 18 10 SW 1022,1 -
19.06.2018 02:00:00 14,4 11,2 11 6 - - SW 1022,1 -
19.06.2018 01:00:00 14,8 11,3 11 6 22 12 WSW 1022,2 -
19.06.2018 00:00:00 15,6 11,3 14 8 22 12 WSW 1022,2 -
18.06.2018 23:00:00 16,5 11,6 11 6 - - W 1022,0 -
18.06.2018 22:00:00 17,7 12,4 11 6 25 14 WSW 1021,3 -
18.06.2018 21:00:00 19,2 12,1 18 10 32 18 WSW 1020,8 -
18.06.2018 20:00:00 19,6 12,4 22 12 - - WSW 1021,0 -
18.06.2018 19:00:00 20,2 12,9 18 10 32 18 WSW 1020,6 -
18.06.2018 18:00:00 21,4 13,3 22 12 32 18 WSW 1020,7 20
18.06.2018 17:00:00 21,2 14,1 25 14 - - WSW 1020,7 20
18.06.2018 16:00:00 20,5 14,7 14 8 32 18 WSW 1020,8 20
18.06.2018 15:00:00 21,4 15,2 14 8 29 16 WSW 1020,7 20
18.06.2018 14:00:00 20,3 14,7 18 10 - - WSW 1021,1 20
18.06.2018 13:00:00 18,7 15,0 18 10 32 18 WSW 1021,1 20
18.06.2018 12:00:00 18,8 15,1 18 10 36 19 SW 1020,7 9
18.06.2018 11:00:00 - - - - - - - - -
18.06.2018 10:00:00 18,6 13,7 18 10 29 16 SW 1020,6 20
18.06.2018 09:00:00 17,7 13,2 18 10 32 18 SW 1020,2 15
18.06.2018 08:00:00 17,1 11,9 14 8 - - SW 1020,1 20
18.06.2018 07:00:00 16,2 11,8 7 4 14 8 SSW 1020,0 20
18.06.2018 06:00:00 15,3 11,3 9 5 22 12 SSW 1020,1 10
18.06.2018 05:00:00 15,6 10,9 11 6 - - SW 1019,8 20
18.06.2018 04:00:00 15,5 10,3 4 2 11 6 N 1020,0 20
18.06.2018 03:00:00 15,6 9,9 4 2 11 6 N 1020,0 20
18.06.2018 02:00:00 15,6 9,5 4 2 - - N 1020,3 20
18.06.2018 01:00:00 15,7 9,2 11 6 14 8 SW 1020,5 20
18.06.2018 00:00:00 16,0 8,8 11 6 18 10 SW 1020,3 20
17.06.2018 23:00:00 16,3 8,6 11 6 - - WSW 1020,2 20
17.06.2018 22:00:00 16,8 10,0 11 6 14 8 SW 1020,0 20
17.06.2018 21:00:00 17,6 9,9 7 4 14 8 SSW 1019,6 20
17.06.2018 20:00:00 17,7 9,5 7 4 - - SW 1019,5 20
17.06.2018 19:00:00 18,1 9,3 14 8 25 14 WSW 1019,3 20
17.06.2018 18:00:00 18,0 9,1 18 10 36 19 WSW 1019,3 20
17.06.2018 17:00:00 18,8 9,4 18 10 - - WSW 1019,2 20
17.06.2018 16:00:00 18,2 8,6 22 12 29 16 WSW 1019,2 20
17.06.2018 15:00:00 18,2 8,7 18 10 29 16 SW 1018,8 20
17.06.2018 14:00:00 17,7 8,7 18 10 - - WSW 1018,7 20
17.06.2018 13:00:00 16,8 8,2 14 8 36 19 WSW 1018,7 20
17.06.2018 12:00:00 18,3 9,7 18 10 29 16 WSW 1018,2 20
17.06.2018 11:00:00 16,9 9,3 18 10 - - WSW 1018,2 20
17.06.2018 10:00:00 16,4 9,7 18 10 32 18 WSW 1018,0 20
17.06.2018 09:00:00 16,1 9,7 22 12 29 16 WSW 1017,7 20
17.06.2018 08:00:00 15,6 10,2 18 10 - - SW 1017,1 20
17.06.2018 07:00:00 14,7 10,2 14 8 22 12 SW 1016,8 20
17.06.2018 06:00:00 13,8 9,8 11 6 18 10 SSW 1016,8 20
17.06.2018 05:00:00 13,8 9,5 7 4 - - SSW 1016,7 20
17.06.2018 04:00:00 14,0 9,2 7 4 18 10 SSW 1016,7 20
17.06.2018 03:00:00 14,5 9,0 11 6 18 10 SW 1016,7 20
17.06.2018 02:00:00 13,6 8,3 7 4 - - N 1016,5 20
17.06.2018 01:00:00 13,6 8,3 4 2 11 6 N 1016,6 20
17.06.2018 00:00:00 14,3 8,5 11 6 14 8 WSW 1016,7 20
16.06.2018 23:00:00 15,5 10,2 7 4 - - WSW 1016,5 20
16.06.2018 22:00:00 16,6 11,4 4 2 14 8 N 1016,1 20
16.06.2018 21:00:00 19,1 11,3 7 4 22 12 WNW 1015,6 20
16.06.2018 20:00:00 20,0 11,4 14 8 - - W 1015,2 20
16.06.2018 19:00:00 20,8 10,8 18 10 29 16 W 1014,8 20
16.06.2018 18:00:00 22,1 11,0 14 8 29 16 W 1014,6 20
16.06.2018 17:00:00 22,2 10,4 18 10 - - WSW 1014,6 20
16.06.2018 16:00:00 23,2 11,9 18 10 32 18 SW 1014,3 20
16.06.2018 15:00:00 24,4 11,5 11 6 32 18 SSW 1014,5 20
16.06.2018 14:00:00 23,2 11,4 11 6 - - SW 1015,1 6
16.06.2018 13:00:00 20,9 11,8 14 8 25 14 SW 1016,1 5
16.06.2018 12:00:00 20,1 12,0 18 10 22 12 WSW 1016,2 19
16.06.2018 11:00:00 20,5 11,7 13 7 - - SW 1016,0 10
16.06.2018 10:00:00 18,6 10,5 11 6 18 10 SW 1016,1 16
16.06.2018 09:00:00 17,1 11,3 7 4 14 8 WSW 1016,2 16
16.06.2018 08:00:00 15,1 12,5 11 6 - - SW 1016,3 8
16.06.2018 07:00:00 14,1 12,8 7 4 11 6 SW 1016,1 5
16.06.2018 06:00:00 13,6 12,5 4 2 7 4 N 1015,7 4,8
16.06.2018 05:00:00 13,6 12,6 4 2 - - N 1016,0 5
16.06.2018 04:00:00 14,1 13,0 7 4 11 6 SW 1016,1 4,2
16.06.2018 03:00:00 14,0 12,9 7 4 11 6 SW 1016,1 6
16.06.2018 02:00:00 14,3 12,4 7 4 - - N 1016,1 8
16.06.2018 01:00:00 15,4 12,0 7 4 11 6 SW 1016,0 20
16.06.2018 00:00:00 14,9 11,5 4 2 4 2 N 1016,0 20
15.06.2018 23:00:00 16,0 11,2 4 2 - - N 1016,0 20
15.06.2018 22:00:00 18,5 11,0 4 2 4 2 N 1016,0 20
15.06.2018 21:00:00 21,3 10,6 4 2 14 8 N 1016,0 20
15.06.2018 20:00:00 22,7 10,3 11 6 - - WSW 1016,0 20
15.06.2018 19:00:00 23,6 9,4 11 6 18 10 SSW 1016,1 20

tt = Température de l'air
td = dewpoint
ff = Vitesse du vent
fx = gusts
dd = Direction du vent
ppp = reduced air pressure
vv = visibility

stations d'obs. à proximité